EW3714 Weather Reports


time (UTC)temp
C
wind
direction
speed
KPH
gust
KPH
rain 1hr
cm
rain 24hr
cm
rain mn
cm
humidity
%
barometer
mb
20260510032358 25 102 0.0 1.6 0.00 0.05 0.05 78 1011.1
20260510031853 25 89 1.6 1.6 0.00 0.05 0.05 78 1011.0
20260510031349 25 112 1.6 3.2 0.00 0.05 0.05 77 1011.1
20260510030849 25 75 1.6 3.2 0.00 0.05 0.05 77 1011.0
20260510030345 26 89 0.0 1.6 0.00 0.05 0.05 77 1010.9
20260510025843 26 82 0.0 1.6 0.00 0.05 0.05 77 1010.9
20260510025340 26 95 1.6 1.6 0.00 0.05 0.05 77 1010.8
20260510024837 26 95 0.0 1.6 0.00 0.05 0.05 76 1010.8
20260510024334 26 57 1.6 1.6 0.00 0.05 0.05 76 1010.8
20260510023830 26 65 0.0 1.6 0.00 0.05 0.05 75 1010.6
20260510023326 26 96 0.0 1.6 0.00 0.05 0.05 75 1010.4
20260510022824 26 88 3.2 3.2 0.00 0.05 0.05 75 1010.2
20260510022323 26 83 3.2 3.2 0.00 0.05 0.05 75 1010.2
20260510021822 26 106 0.0 3.2 0.00 0.05 0.05 74 1010.4
20260510021320 26 109 1.6 3.2 0.00 0.05 0.05 73 1010.2
20260510020816 27 94 0.0 3.2 0.00 0.05 0.05 73 1010.0
20260510020311 26 46 3.2 3.2 0.00 0.05 0.05 73 1009.9
20260510015807 26 89 1.6 3.2 0.00 0.05 0.05 72 1010.0
20260510015306 27 82 1.6 3.2 0.00 0.05 0.05 72 1009.8
20260510014758 27 98 1.6 1.6 0.00 0.05 0.05 72 1009.7
20260510014256 27 94 1.6 3.2 0.00 0.05 0.05 71 1009.6
20260510013752 27 96 0.0 1.6 0.00 0.05 0.05 69 1009.7
20260510013248 27 110 0.0 1.6 0.00 0.05 0.05 69 1009.6
20260510012743 27 60 1.6 1.6 0.00 0.05 0.05 68 1009.7
20260510012238 27 89 0.0 1.6 0.00 0.05 0.05 67 1009.6
20260510011737 28 95 1.6 1.6 0.00 0.05 0.05 66 1009.5
20260510011233 28 77 1.6 3.2 0.00 0.05 0.05 65 1009.6
20260510010730 28 35 3.2 3.2 0.00 0.05 0.05 64 1009.5
20260510010227 28 100 1.6 3.2 0.00 0.05 0.05 63 1009.4
20260510005724 28 95 0.0 3.2 0.00 0.05 0.05 61 1009.3
20260510005220 29 107 1.6 3.2 0.00 0.05 0.05 60 1009.5
20260510004718 29 77 1.6 3.2 0.00 0.05 0.05 60 1009.3
20260510004216 30 89 3.2 3.2 0.00 0.05 0.05 59 1009.1
20260510003713 30 81 0.0 3.2 0.00 0.05 0.05 59 1009.2
20260510003209 30 146 1.6 3.2 0.00 0.05 0.05 57 1009.3
20260510002708 30 81 0.0 1.6 0.00 0.05 0.05 59 1009.3
20260510002206 30 151 1.6 3.2 0.00 0.05 0.05 58 1009.0
20260510001702 30 84 0.0 3.2 0.00 0.05 0.05 58 1009.1
20260510001201 30 137 0.0 3.2 0.00 0.05 0.05 56 1009.1
20260510000656 30 104 0.0 3.2 0.00 0.05 0.05 52 1009.2
20260510000154 30 126 0.0 3.2 0.00 0.05 0.05 51 1009.0
20260509235650 31 67 0.0 1.6 0.00 0.05 0.05 50 1008.9
20260509235147 31 117 0.0 1.6 0.00 0.05 0.05 47 1009.0
20260509234643 31 70 1.6 3.2 0.00 0.05 0.05 47 1008.9
20260509234140 31 160 1.6 3.2 0.00 0.05 0.05 46 1008.9
20260509233638 31 50 0.0 3.2 0.00 0.05 0.05 47 1008.8
20260509233135 31 62 0.0 3.2 0.00 0.05 0.05 46 1008.9
20260509232631 31 137 1.6 3.2 0.00 0.05 0.05 46 1008.9
20260509232128 31 138 1.6 1.6 0.00 0.05 0.05 45 1008.8
20260509231625 31 44 0.0 0.0 0.00 0.05 0.05 45 1008.7
20260509231123 31 113 0.0 0.0 0.00 0.05 0.05 45 1008.8
20260509230619 31 175 0.0 3.2 0.00 0.05 0.05 45 1008.7
20260509230116 31 201 0.0 1.6 0.00 0.05 0.05 45 1008.7
20260509225612 31 85 0.0 1.6 0.00 0.05 0.05 44 1008.8
20260509225108 31 129 0.0 1.6 0.00 0.05 0.05 44 1008.7
20260509224603 31 89 0.0 3.2 0.00 0.05 0.05 43 1008.9
20260509224100 31 32 0.0 3.2 0.00 0.05 0.05 42 1008.9
20260509223557 31 150 0.0 1.6 0.00 0.05 0.05 43 1008.8
20260509223055 31 129 0.0 3.2 0.00 0.05 0.05 44 1008.8
20260509222551 31 142 0.0 0.0 0.00 0.05 0.05 43 1008.7
20260509222047 31 26 0.0 3.2 0.00 0.05 0.05 44 1008.9
20260509221542 31 25 0.0 3.2 0.00 0.05 0.05 44 1008.9
20260509221039 31 74 1.6 3.2 0.00 0.05 0.05 44 1008.7
20260509220535 31 66 1.6 3.2 0.00 0.05 0.05 44 1008.8
20260509220031 31 75 3.2 3.2 0.00 0.05 0.05 48 1008.8
20260509215526 31 48 0.0 4.8 0.00 0.05 0.05 50 1008.9
20260509215024 32 142 0.0 1.6 0.00 0.05 0.05 52 1008.9
20260509214521 31 117 0.0 1.6 0.00 0.05 0.05 50 1009.0
20260509214018 31 166 1.6 3.2 0.00 0.05 0.05 50 1009.0
20260509213514 31 113 0.0 4.8 0.00 0.05 0.05 49 1009.1
20260509213011 31 32 3.2 3.2 0.00 0.05 0.05 46 1009.2
20260509212508 31 242 0.0 3.2 0.00 0.05 0.05 49 1009.0
20260509212005 32 198 3.2 4.8 0.00 0.05 0.05 49 1009.3
20260509211500 32 205 0.0 1.6 0.00 0.05 0.05 47 1009.2
20260509210957 32 121 0.0 4.8 0.00 0.05 0.05 46 1009.5
20260509210454 33 22 1.6 6.4 0.00 0.05 0.05 41 1009.6
20260509205949 34 233 0.0 3.2 0.00 0.05 0.05 35 1009.5
20260509205444 36 11 0.0 1.6 0.00 0.05 0.05 35 1009.4
20260509204941 35 269 0.0 1.6 0.00 0.05 0.05 33 1009.4
20260509204437 35 32 0.0 1.6 0.00 0.05 0.05 35 1009.5
20260509203934 35 180 3.2 3.2 0.00 0.05 0.05 35 1009.3
20260509203429 35 122 0.0 3.2 0.00 0.05 0.05 35 1009.5
20260509202927 34 229 0.0 3.2 0.00 0.05 0.05 36 1009.6
20260509202423 34 150 0.0 6.4 0.00 0.05 0.05 38 1009.7
20260509201918 34 319 0.0 1.6 0.00 0.05 0.05 38 1009.7
20260509201414 33 223 0.0 6.4 0.00 0.05 0.05 39 1010.0
20260509200911 34 187 3.2 3.2 0.00 0.05 0.05 37 1010.2
20260509200411 33 224 0.0 3.2 0.00 0.05 0.05 37 1010.5
20260509195908 33 26 1.6 4.8 0.00 0.05 0.05 38 1010.5
20260509195403 33 174 0.0 3.2 0.00 0.05 0.05 37 1010.7
20260509194902 33 42 3.2 3.2 0.00 0.05 0.05 39 1010.6
20260509194359 32 62 0.0 3.2 0.00 0.05 0.05 44 1010.7
20260509193855 31 249 0.0 3.2 0.00 0.05 0.05 50 1010.5
20260509193355 30 193 1.6 3.2 0.00 0.05 0.05 54 1010.5
20260509192852 31 13 1.6 1.6 0.00 0.05 0.05 50 1010.4
20260509192348 32 127 0.0 3.2 0.00 0.05 0.05 52 1010.2
20260509191843 33 129 0.0 1.6 0.00 0.05 0.05 51 1010.1
20260509191339 32 130 1.6 6.4 0.00 0.05 0.05 49 1010.4
20260509190835 32 29 0.0 3.2 0.00 0.05 0.05 53 1010.2
20260509190333 33 129 0.0 3.2 0.00 0.05 0.05 51 1010.2
20260509185830 32 15 0.0 1.6 0.00 0.05 0.05 54 1010.1
20260509185326 32 164 0.0 1.6 0.00 0.05 0.05 56 1010.1
20260509184824 32 187 3.2 3.2 0.00 0.05 0.05 56 1010.6
20260509184321 32 132 3.2 4.8 0.00 0.05 0.05 54 1010.5
20260509183817 33 47 1.6 4.8 0.00 0.05 0.05 55 1010.6
20260509183312 33 187 1.6 3.2 0.00 0.05 0.05 55 1010.8
20260509182808 32 151 0.0 1.6 0.00 0.05 0.05 58 1010.8
20260509182307 33 17 3.2 3.2 0.00 0.05 0.05 55 1010.8
20260509181802 33 116 1.6 3.2 0.00 0.05 0.05 53 1011.0
20260509181300 33 66 0.0 3.2 0.00 0.05 0.05 54 1010.9
20260509180757 33 45 1.6 3.2 0.00 0.05 0.05 54 1011.0
20260509180253 32 103 1.6 6.4 0.00 0.05 0.05 56 1011.0
20260509175750 32 162 0.0 3.2 0.00 0.05 0.05 58 1011.2
20260509175247 32 132 3.2 6.4 0.00 0.05 0.05 60 1011.1
20260509174742 32 44 3.2 4.8 0.00 0.05 0.05 59 1011.1
20260509174238 32 48 4.8 6.4 0.00 0.05 0.05 60 1011.2
20260509173734 32 123 1.6 3.2 0.00 0.05 0.05 62 1011.4
20260509173230 32 56 1.6 3.2 0.00 0.05 0.05 60 1011.7
20260509172726 31 146 3.2 3.2 0.00 0.05 0.05 64 1011.8
20260509172223 30 95 3.2 6.4 0.00 0.05 0.05 65 1011.8
20260509171718 31 108 4.8 6.4 0.00 0.05 0.05 64 1011.8
20260509171215 30 77 3.2 4.8 0.00 0.05 0.05 64 1011.6
20260509170712 30 110 1.6 6.4 0.00 0.05 0.05 66 1011.8
20260509170207 30 110 1.6 3.2 0.00 0.05 0.05 66 1011.6
20260509165706 30 103 0.0 4.8 0.00 0.05 0.05 68 1011.8
20260509165201 29 102 4.8 6.4 0.00 0.05 0.05 68 1011.6
20260509164658 30 79 3.2 4.8 0.00 0.05 0.05 68 1011.8
20260509164153 28 121 3.2 6.4 0.00 0.05 0.05 72 1011.9
20260509163651 28 128 1.6 8.0 0.00 0.05 0.05 74 1011.7
20260509163147 27 93 4.8 4.8 0.00 0.05 0.05 76 1011.8
20260509162645 27 51 3.2 4.8 0.00 0.05 0.05 78 1011.8
20260509162140 27 87 3.2 4.8 0.00 0.05 0.05 79 1011.7
20260509161637 27 134 1.6 6.4 0.00 0.05 0.05 79 1011.8
20260509161132 26 57 3.2 8.0 0.00 0.05 0.05 80 1011.7
20260509160628 26 97 3.2 6.4 0.00 0.05 0.05 80 1011.8
20260509160123 26 76 4.8 6.4 0.00 0.05 0.05 81 1011.9
20260509155620 26 87 3.2 8.0 0.00 0.05 0.05 81 1011.8
20260509155116 26 149 0.0 4.8 0.00 0.05 0.05 82 1011.9
20260509154612 26 53 1.6 4.8 0.00 0.05 0.05 83 1011.9
20260509154109 25 79 3.2 3.2 0.00 0.05 0.05 85 1011.9
20260509153606 25 73 3.2 6.4 0.00 0.05 0.05 86 1011.8
20260509153103 25 89 3.2 4.8 0.00 0.05 0.05 87 1011.8
20260509152559 25 72 3.2 4.8 0.00 0.05 0.05 85 1011.8
20260509152057 25 126 3.2 4.8 0.00 0.05 0.05 86 1011.7
20260509151552 25 70 3.2 3.2 0.00 0.05 0.05 87 1011.7
20260509151050 25 89 0.0 3.2 0.00 0.05 0.05 87 1011.7
20260509150548 25 80 3.2 3.2 0.00 0.05 0.05 89 1011.7
20260509150046 25 128 3.2 3.2 0.00 0.05 0.05 89 1011.8
20260509145541 24 53 3.2 4.8 0.00 0.05 0.05 90 1011.8
20260509145037 24 112 0.0 3.2 0.00 0.05 0.05 90 1011.7
20260509144534 24 104 1.6 3.2 0.00 0.05 0.05 91 1011.7
20260509144031 24 146 1.6 3.2 0.00 0.05 0.05 91 1011.8
20260509143528 24 111 3.2 4.8 0.00 0.05 0.05 91 1011.7
20260509143026 24 20 0.0 4.8 0.00 0.05 0.05 91 1011.4
20260509142521 24 73 3.2 3.2 0.00 0.05 0.05 92 1011.4
20260509142017 23 97 1.6 4.8 0.00 0.05 0.05 93 1011.2
20260509141514 23 213 0.0 3.2 0.00 0.05 0.05 93 1011.3
20260509141010 23 106 1.6 3.2 0.00 0.05 0.05 94 1011.3
20260509140507 23 95 1.6 3.2 0.00 0.05 0.05 94 1011.3
20260509140006 23 77 1.6 3.2 0.00 0.05 0.05 95 1011.0
20260509135502 23 107 0.0 4.8 0.00 0.05 0.05 96 1011.0
20260509134959 23 45 1.6 4.8 0.00 0.05 0.05 96 1011.1
20260509134457 22 108 1.6 3.2 0.00 0.05 0.05 97 1011.2
20260509133954 22 66 1.6 4.8 0.00 0.05 0.05 97 1011.2
20260509133451 22 84 3.2 3.2 0.00 0.05 0.05 98 1011.5
20260509132948 22 101 4.8 6.4 0.00 0.05 0.05 98 1011.5
20260509132447 22 80 1.6 4.8 0.00 0.05 0.05 98 1011.6
20260509131943 22 84 1.6 4.8 0.00 0.05 0.05 98 1011.7
20260509131440 22 91 1.6 3.2 0.00 0.05 0.05 98 1011.8
20260509130937 22 93 1.6 3.2 0.00 0.05 0.05 98 1011.8
20260509130432 22 92 1.6 3.2 0.00 0.05 0.05 98 1011.9
20260509125930 22 64 0.0 3.2 0.00 0.05 0.05 98 1011.8
20260509125426 22 74 1.6 3.2 0.00 0.05 0.05 98 1011.6
20260509124922 22 106 1.6 3.2 0.00 0.05 0.05 98 1011.7
20260509124419 22 81 1.6 3.2 0.00 0.05 0.05 98 1011.5
20260509123917 22 95 1.6 3.2 0.00 0.05 0.05 98 1011.5
20260509123414 22 94 3.2 3.2 0.00 0.05 0.05 98 1011.3
20260509122910 22 96 3.2 3.2 0.00 0.05 0.05 98 1011.3
20260509122407 22 128 1.6 3.2 0.00 0.05 0.05 98 1011.0
20260509121904 22 122 0.0 3.2 0.00 0.05 0.05 98 1011.2
20260509121401 22 109 1.6 3.2 0.00 0.05 0.05 98 1011.2
20260509120859 22 104 3.2 3.2 0.00 0.05 0.05 98 1011.0
20260509120356 22 110 3.2 3.2 0.00 0.05 0.05 98 1011.0
20260509115854 22 100 0.0 3.2 0.00 0.05 0.05 98 1011.3
20260509115351 22 65 3.2 4.8 0.05 0.05 0.05 98 1011.4
20260509114849 22 56 1.6 3.2 0.05 0.05 0.05 98 1011.5
20260509114347 22 64 3.2 3.2 0.00 0.05 0.05 98 1011.8
20260509113846 22 97 3.2 3.2 0.00 0.05 0.05 98 1011.7
20260509113343 22 213 1.6 3.2 0.00 0.05 0.05 98 1011.7
20260509112839 22 89 1.6 3.2 0.00 0.05 0.05 98 1012.4
20260509112337 22 50 1.6 3.2 0.00 0.05 0.05 98 1012.3
20260509111834 22 82 1.6 3.2 0.00 0.05 0.05 98 1012.3
20260509111331 22 109 3.2 3.2 0.00 0.05 0.05 98 1012.3
20260509110829 22 84 1.6 3.2 0.00 0.05 0.05 98 1012.4
20260509110324 22 61 1.6 3.2 0.13 0.05 0.05 97 1012.1
20260509105823 22 113 3.2 3.2 0.23 0.05 0.05 97 1012.4
20260509105321 22 89 0.0 3.2 0.13 0.03 0.03 97 1012.5
20260509104817 22 79 1.6 3.2 0.00 0.00 0.00 97 1012.6
20260509104314 22 87 1.6 3.2 0.00 0.00 0.00 97 1012.1
20260509103812 22 99 3.2 3.2 0.00 0.00 0.00 97 1012.3
20260509103309 22 79 1.6 3.2 0.00 0.00 0.00 97 1012.4
20260509102807 22 96 1.6 3.2 0.00 0.00 0.00 97 1012.5
20260509102306 22 73 1.6 3.2 0.00 0.00 0.00 97 1012.3
20260509101800 22 69 1.6 3.2 0.00 0.00 0.00 97 1012.3
20260509101256 22 58 1.6 3.2 0.00 0.00 0.00 97 1012.2
20260509100754 22 67 0.0 3.2 0.00 0.00 0.00 97 1011.9
20260509100251 22 78 1.6 3.2 0.00 0.00 0.00 97 1011.6
20260509095747 22 84 1.6 3.2 0.00 0.00 0.00 97 1011.3
20260509095245 22 65 1.6 3.2 0.00 0.00 0.00 97 1011.0
20260509094742 22 80 1.6 3.2 0.00 0.00 0.00 97 1011.1
20260509094239 22 91 1.6 3.2 0.00 0.00 0.00 97 1011.0
20260509093737 22 86 1.6 3.2 0.00 0.00 0.00 97 1011.0
20260509093234 22 83 1.6 3.2 0.00 0.00 0.00 97 1011.0
20260509092732 22 75 1.6 3.2 0.00 0.00 0.00 97 1011.0
20260509092230 22 87 1.6 3.2 0.00 0.00 0.00 97 1010.9
20260509091728 22 95 1.6 3.2 0.00 0.00 0.00 97 1010.9
20260509091223 22 86 1.6 3.2 0.00 0.00 0.00 97 1010.8
20260509090721 22 84 1.6 3.2 0.00 0.00 0.00 97 1011.1
20260509090218 22 86 3.2 3.2 0.05 0.00 0.00 96 1010.9
20260509085716 22 89 1.6 1.6 0.05 0.00 0.00 96 1011.0
20260509085213 22 74 1.6 3.2 0.00 0.00 0.00 96 1010.8
20260509084709 22 77 1.6 3.2 0.00 0.00 0.00 96 1011.0
20260509084206 22 71 3.2 3.2 0.00 0.00 0.00 96 1011.1
20260509083704 22 95 0.0 3.2 0.00 0.00 0.00 96 1011.2
20260509083200 22 86 3.2 3.2 0.00 0.00 0.00 96 1011.1
20260509082657 22 79 1.6 3.2 0.00 0.00 0.00 96 1011.1
20260509082153 22 86 3.2 3.2 0.00 0.00 0.00 96 1011.5
20260509081651 22 77 1.6 3.2 0.00 0.00 0.00 96 1011.6
20260509081148 22 68 1.6 3.2 0.00 0.00 0.00 95 1011.4
20260509080646 22 82 1.6 3.2 0.00 0.00 0.00 95 1011.2
20260509080144 22 95 1.6 3.2 0.00 0.00 0.00 95 1011.2
20260509075642 22 89 1.6 3.2 0.00 0.00 0.00 95 1011.4
20260509075139 22 80 1.6 3.2 0.00 0.00 0.00 94 1011.4
20260509074636 22 66 1.6 3.2 0.00 0.00 0.00 94 1011.5
20260509074132 22 82 3.2 3.2 0.00 0.00 0.00 94 1011.5
20260509073629 22 84 1.6 3.2 0.00 0.00 0.00 94 1011.4
20260509073125 22 84 1.6 3.2 0.00 0.00 0.00 94 1011.5
20260509072622 22 66 3.2 3.2 0.00 0.00 0.00 93 1011.6
20260509072119 22 87 1.6 3.2 0.00 0.00 0.00 93 1011.7
20260509071616 22 85 1.6 3.2 0.00 0.00 0.00 93 1011.7
20260509071113 22 80 1.6 1.6 0.00 0.00 0.00 93 1011.7
20260509070610 22 89 1.6 3.2 0.00 0.00 0.00 93 1011.8
20260509070106 22 61 1.6 3.2 0.00 0.00 0.00 93 1011.6
20260509065602 22 87 1.6 3.2 0.00 0.00 0.00 93 1011.8
20260509065058 22 79 1.6 3.2 0.00 0.00 0.00 93 1011.5
20260509064556 22 57 3.2 3.2 0.00 0.00 0.00 93 1011.4
20260509064054 22 99 1.6 3.2 0.00 0.00 0.00 92 1011.2
20260509063549 22 107 1.6 3.2 0.00 0.00 0.00 92 1011.4
20260509063047 22 67 1.6 3.2 0.00 0.00 0.00 92 1011.2
20260509062544 22 101 1.6 4.8 0.00 0.00 0.00 92 1011.5
20260509062041 22 84 0.0 3.2 0.00 0.00 0.00 92 1011.5
20260509061538 22 82 3.2 4.8 0.00 0.00 0.00 91 1011.2
20260509061035 23 49 4.8 4.8 0.00 0.00 0.00 91 1011.0
20260509060533 23 85 0.0 4.8 0.00 0.00 0.00 91 1011.0
20260509060028 23 76 3.2 4.8 0.00 0.00 0.00 91 1010.8
20260509055524 23 99 3.2 3.2 0.00 0.00 0.00 90 1011.0
20260509055020 23 51 3.2 3.2 0.00 0.00 0.00 90 1010.9
20260509054517 23 85 3.2 4.8 0.00 0.00 0.00 90 1011.1
20260509054015 23 64 0.0 3.2 0.00 0.00 0.00 90 1011.1
20260509053513 23 83 1.6 3.2 0.00 0.00 0.00 90 1011.0
20260509053010 23 49 3.2 3.2 0.00 0.00 0.00 90 1010.8
20260509052508 23 42 1.6 3.2 0.00 0.00 0.00 90 1010.7
20260509052006 23 45 3.2 3.2 0.00 0.00 0.00 89 1010.4
20260509051503 23 113 1.6 3.2 0.00 0.00 0.00 89 1010.5
20260509051000 23 69 1.6 3.2 0.00 0.00 0.00 89 1010.4
20260509050456 23 69 1.6 3.2 0.00 0.00 0.00 89 1010.5
20260509045953 23 91 3.2 3.2 0.00 0.00 0.00 88 1010.4
20260509045450 23 84 1.6 3.2 0.00 0.00 0.00 88 1010.5
20260509044947 23 70 1.6 3.2 0.00 0.00 0.00 88 1010.6
20260509044445 23 66 1.6 3.2 0.00 0.00 0.00 87 1010.5
20260509043942 23 51 3.2 3.2 0.00 0.00 0.00 87 1010.4
20260509043438 23 12 1.6 3.2 0.00 0.00 0.00 87 1010.6
20260509042933 23 84 1.6 3.2 0.00 0.00 0.00 87 1010.6
20260509042431 23 95 1.6 3.2 0.00 0.00 0.00 87 1010.8
20260509041927 23 16 0.0 6.4 0.00 0.00 0.00 87 1010.8
20260509041424 23 70 1.6 3.2 0.00 0.00 0.00 87 1011.0
20260509040922 23 56 3.2 3.2 0.00 0.00 0.00 87 1010.9
20260509040420 23 107 1.6 3.2 0.00 0.00 0.00 87 1010.9
20260509035916 23 134 3.2 4.8 0.00 0.00 0.00 86 1010.8
20260509035413 23 61 3.2 3.2 0.00 0.00 0.00 86 1010.8
20260509034909 23 54 3.2 3.2 0.00 0.00 0.00 86 1010.8
20260509034408 23 42 1.6 3.2 0.00 0.00 0.00 86 1010.7
20260509033904 23 130 3.2 4.8 0.00 0.00 0.00 86 1010.5
20260509033401 23 77 1.6 3.2 0.00 0.00 0.00 87 1010.5
20260509032858 23 109 1.6 3.2 0.00 0.00 0.00 87 1010.7